| time (UTC) | temp F | wind direction | speed MPH | gust MPH | rain 1hr in | rain 24hr in | rain mn in | humidity % | barometer mb |
| 20260507005954 | 57 | 175 | 3.0 | 5.0 | 0.00 | 0.00 | 0.00 | 90 | 1014.3 |
| 20260507005053 | 57 | 183 | 3.0 | 7.0 | 0.00 | 0.00 | 0.00 | 90 | 1014.3 |
| 20260507004153 | 57 | 174 | 3.0 | 7.0 | 0.00 | 0.00 | 0.00 | 90 | 1014.4 |
| 20260507003253 | 57 | 179 | 3.0 | 7.0 | 0.00 | 0.00 | 0.00 | 90 | 1014.3 |
| 20260507002353 | 57 | 182 | 4.0 | 7.0 | 0.00 | 0.00 | 0.00 | 90 | 1014.2 |
| 20260507001452 | 58 | 181 | 3.0 | 7.0 | 0.00 | 0.00 | 0.00 | 90 | 1014.2 |
| 20260506235653 | 58 | 197 | 4.0 | 8.0 | 0.00 | 0.00 | 0.00 | 90 | 1014.2 |
| 20260506234753 | 58 | 209 | 3.0 | 7.0 | 0.00 | 0.00 | 0.00 | 90 | 1014.3 |
| 20260506232952 | 58 | 209 | 4.0 | 9.0 | 0.00 | 0.00 | 0.00 | 90 | 1014.0 |
| 20260506231152 | 58 | 205 | 4.0 | 9.0 | 0.00 | 0.00 | 0.00 | 90 | 1013.9 |
| 20260506225352 | 58 | 210 | 5.0 | 15.0 | 0.00 | 0.00 | 0.00 | 89 | 1013.9 |
| 20260506224453 | 58 | 210 | 6.0 | 13.0 | 0.00 | 0.00 | 0.00 | 89 | 1013.8 |
| 20260506223553 | 58 | 215 | 5.0 | 13.0 | 0.00 | 0.00 | 0.00 | 89 | 1013.8 |
| 20260506222652 | 58 | 217 | 6.0 | 13.0 | 0.00 | 0.00 | 0.00 | 89 | 1013.8 |
| 20260506221752 | 58 | 221 | 6.0 | 15.0 | 0.00 | 0.00 | 0.00 | 89 | 1013.6 |
| 20260506220853 | 58 | 220 | 6.0 | 13.0 | 0.00 | 0.00 | 0.00 | 89 | 1013.6 |
| 20260506215952 | 59 | 215 | 6.0 | 13.0 | 0.00 | 0.00 | 0.00 | 89 | 1013.4 |
| 20260506214152 | 59 | 202 | 7.0 | 14.0 | 0.00 | 0.00 | 0.00 | 89 | 1013.4 |
| 20260506213253 | 59 | 208 | 6.0 | 14.0 | 0.00 | 0.00 | 0.00 | 89 | 1013.3 |
| 20260506211452 | 59 | 201 | 5.0 | 12.0 | 0.00 | 0.00 | 0.00 | 91 | 1013.2 |
| 20260506210552 | 58 | 212 | 6.0 | 16.0 | 0.00 | 0.00 | 0.00 | 91 | 1013.2 |
| 20260506202952 | 57 | 218 | 6.0 | 16.0 | 0.00 | 0.00 | 0.00 | 91 | 1013.7 |
| 20260506202052 | 57 | 216 | 7.0 | 18.0 | 0.00 | 0.00 | 0.00 | 90 | 1013.8 |
| 20260506201152 | 57 | 219 | 7.0 | 15.0 | 0.00 | 0.00 | 0.00 | 90 | 1013.8 |
| 20260506200252 | 57 | 214 | 7.0 | 16.0 | 0.00 | 0.00 | 0.00 | 90 | 1014.0 |
| 20260506195352 | 57 | 201 | 9.0 | 19.0 | 0.00 | 0.00 | 0.00 | 90 | 1013.7 |
| 20260506194452 | 58 | 210 | 9.0 | 18.0 | 0.00 | 0.00 | 0.00 | 90 | 1013.9 |
| 20260506193553 | 58 | 206 | 8.0 | 17.0 | 0.00 | 0.00 | 0.00 | 89 | 1013.8 |
| 20260506192652 | 58 | 207 | 9.0 | 17.0 | 0.00 | 0.00 | 0.00 | 89 | 1013.8 |
| 20260506191752 | 59 | 208 | 7.0 | 16.0 | 0.00 | 0.00 | 0.00 | 89 | 1014.1 |
| 20260506190851 | 58 | 202 | 7.0 | 16.0 | 0.00 | 0.00 | 0.00 | 90 | 1014.0 |
| 20260506185952 | 58 | 199 | 9.0 | 18.0 | 0.00 | 0.00 | 0.00 | 90 | 1014.1 |
| 20260506185051 | 58 | 202 | 9.0 | 19.0 | 0.00 | 0.00 | 0.00 | 90 | 1014.2 |
| 20260506184152 | 58 | 209 | 10.0 | 23.0 | 0.00 | 0.00 | 0.00 | 91 | 1014.6 |
| 20260506183251 | 58 | 204 | 8.0 | 23.0 | 0.00 | 0.00 | 0.00 | 91 | 1014.8 |
| 20260506182351 | 58 | 202 | 7.0 | 16.0 | 0.00 | 0.00 | 0.00 | 91 | 1014.8 |
| 20260506181452 | 58 | 200 | 7.0 | 17.0 | 0.00 | 0.00 | 0.00 | 91 | 1014.8 |
| 20260506175651 | 58 | 194 | 8.0 | 14.0 | 0.00 | 0.00 | 0.00 | 91 | 1015.0 |
| 20260506174751 | 58 | 202 | 7.0 | 19.0 | 0.00 | 0.00 | 0.00 | 91 | 1015.3 |
| 20260506173851 | 58 | 199 | 8.0 | 19.0 | 0.00 | 0.00 | 0.00 | 90 | 1015.4 |
| 20260506172052 | 58 | 198 | 7.0 | 14.0 | 0.00 | 0.00 | 0.00 | 89 | 1015.8 |
| 20260506171151 | 58 | 207 | 7.0 | 14.0 | 0.00 | 0.00 | 0.00 | 88 | 1016.0 |
| 20260506170252 | 59 | 218 | 10.0 | 23.0 | 0.00 | 0.00 | 0.00 | 87 | 1016.1 |
| 20260506165351 | 59 | 205 | 8.0 | 20.0 | 0.00 | 0.00 | 0.00 | 86 | 1016.1 |
| 20260506164451 | 59 | 210 | 8.0 | 18.0 | 0.00 | 0.00 | 0.00 | 86 | 1016.2 |
| 20260506162651 | 60 | 203 | 6.0 | 16.0 | 0.00 | 0.00 | 0.00 | 84 | 1016.4 |
| 20260506161751 | 60 | 204 | 9.0 | 19.0 | 0.00 | 0.00 | 0.00 | 84 | 1016.3 |
| 20260506160851 | 60 | 212 | 8.0 | 18.0 | 0.00 | 0.00 | 0.00 | 83 | 1016.4 |
| 20260506155952 | 60 | 211 | 9.0 | 18.0 | 0.00 | 0.00 | 0.00 | 83 | 1016.5 |
| 20260506155051 | 61 | 213 | 10.0 | 27.0 | 0.00 | 0.00 | 0.00 | 83 | 1016.5 |
| 20260506153252 | 61 | 206 | 9.0 | 17.0 | 0.00 | 0.00 | 0.00 | 82 | 1016.8 |
| 20260506152351 | 61 | 211 | 10.0 | 19.0 | 0.00 | 0.00 | 0.00 | 83 | 1016.8 |
| 20260506151451 | 60 | 214 | 10.0 | 22.0 | 0.00 | 0.00 | 0.00 | 83 | 1016.8 |
| 20260506150551 | 60 | 206 | 9.0 | 20.0 | 0.00 | 0.00 | 0.00 | 84 | 1016.5 |
| 20260506145651 | 60 | 195 | 9.0 | 20.0 | 0.00 | 0.00 | 0.00 | 84 | 1016.5 |
| 20260506142951 | 61 | 202 | 9.0 | 19.0 | 0.00 | 0.00 | 0.00 | 82 | 1016.8 |
| 20260506142051 | 61 | 206 | 10.0 | 20.0 | 0.00 | 0.00 | 0.00 | 82 | 1016.8 |
| 20260506141151 | 61 | 198 | 10.0 | 19.0 | 0.00 | 0.00 | 0.00 | 82 | 1016.8 |
| 20260506140251 | 61 | 200 | 10.0 | 21.0 | 0.00 | 0.00 | 0.00 | 83 | 1016.9 |
| 20260506134451 | 61 | 198 | 8.0 | 22.0 | 0.00 | 0.00 | 0.00 | 82 | 1017.2 |
| 20260506133551 | 61 | 194 | 10.0 | 19.0 | 0.00 | 0.00 | 0.00 | 84 | 1017.0 |
| 20260506132650 | 60 | 201 | 9.0 | 20.0 | 0.00 | 0.00 | 0.00 | 84 | 1016.9 |
| 20260506130851 | 60 | 198 | 9.0 | 21.0 | 0.00 | 0.00 | 0.00 | 84 | 1016.9 |
| 20260506125950 | 60 | 202 | 9.0 | 21.0 | 0.00 | 0.00 | 0.00 | 84 | 1017.0 |
| 20260506125051 | 60 | 201 | 11.0 | 21.0 | 0.00 | 0.00 | 0.00 | 84 | 1016.8 |
| 20260506124150 | 61 | 195 | 9.0 | 21.0 | 0.00 | 0.00 | 0.00 | 82 | 1017.1 |
| 20260506123250 | 61 | 207 | 11.0 | 24.0 | 0.00 | 0.00 | 0.00 | 83 | 1017.2 |
| 20260506122350 | 61 | 201 | 10.0 | 19.0 | 0.00 | 0.00 | 0.00 | 83 | 1017.3 |
| 20260506121451 | 61 | 201 | 7.0 | 17.0 | 0.00 | 0.00 | 0.00 | 83 | 1017.4 |
| 20260506120550 | 61 | 206 | 7.0 | 19.0 | 0.00 | 0.00 | 0.00 | 84 | 1017.3 |
| 20260506114751 | 60 | 205 | 9.0 | 23.0 | 0.00 | 0.00 | 0.00 | 84 | 1017.2 |
| 20260506113851 | 60 | 210 | 9.0 | 19.0 | 0.00 | 0.00 | 0.00 | 85 | 1017.1 |
| 20260506112951 | 59 | 209 | 7.0 | 19.0 | 0.00 | 0.00 | 0.00 | 85 | 1017.2 |
| 20260506112050 | 59 | 208 | 7.0 | 16.0 | 0.00 | 0.00 | 0.00 | 86 | 1017.4 |
| 20260506111151 | 58 | 206 | 7.0 | 15.0 | 0.00 | 0.00 | 0.00 | 87 | 1017.3 |
| 20260506110251 | 58 | 205 | 7.0 | 18.0 | 0.00 | 0.00 | 0.00 | 88 | 1017.3 |
| 20260506105350 | 58 | 204 | 7.0 | 18.0 | 0.00 | 0.00 | 0.00 | 88 | 1017.2 |
| 20260506103550 | 57 | 193 | 8.0 | 17.0 | 0.00 | 0.00 | 0.00 | 89 | 1017.1 |
| 20260506102650 | 57 | 199 | 7.0 | 15.0 | 0.00 | 0.00 | 0.00 | 89 | 1017.2 |
| 20260506101750 | 57 | 201 | 7.0 | 20.0 | 0.00 | 0.00 | 0.00 | 89 | 1017.2 |
| 20260506100850 | 57 | 200 | 8.0 | 17.0 | 0.00 | 0.00 | 0.00 | 89 | 1017.2 |
| 20260506095950 | 57 | 200 | 8.0 | 19.0 | 0.00 | 0.00 | 0.00 | 89 | 1017.2 |
| 20260506095050 | 57 | 200 | 7.0 | 17.0 | 0.00 | 0.00 | 0.00 | 89 | 1017.1 |
| 20260506094151 | 57 | 198 | 8.0 | 16.0 | 0.00 | 0.00 | 0.00 | 89 | 1017.1 |
| 20260506093249 | 57 | 198 | 7.0 | 17.0 | 0.00 | 0.00 | 0.00 | 89 | 1017.1 |
| 20260506092349 | 57 | 202 | 7.0 | 15.0 | 0.00 | 0.00 | 0.00 | 89 | 1017.1 |
| 20260506091449 | 57 | 201 | 7.0 | 17.0 | 0.00 | 0.00 | 0.00 | 89 | 1017.1 |
| 20260506090549 | 57 | 202 | 7.0 | 17.0 | 0.00 | 0.00 | 0.00 | 89 | 1017.2 |
| 20260506085649 | 57 | 203 | 8.0 | 16.0 | 0.00 | 0.00 | 0.00 | 88 | 1017.3 |
| 20260506083849 | 57 | 204 | 7.0 | 16.0 | 0.00 | 0.00 | 0.00 | 88 | 1017.4 |
| 20260506082949 | 57 | 197 | 8.0 | 17.0 | 0.00 | 0.00 | 0.00 | 88 | 1017.4 |
| 20260506082050 | 57 | 196 | 8.0 | 16.0 | 0.00 | 0.00 | 0.00 | 87 | 1017.5 |
| 20260506081150 | 57 | 205 | 8.0 | 19.0 | 0.00 | 0.00 | 0.00 | 87 | 1017.5 |
| 20260506080249 | 57 | 203 | 7.0 | 17.0 | 0.00 | 0.00 | 0.00 | 87 | 1017.4 |
| 20260506072650 | 58 | 209 | 8.0 | 16.0 | 0.00 | 0.00 | 0.00 | 86 | 1017.6 |
| 20260506071749 | 58 | 209 | 8.0 | 17.0 | 0.00 | 0.00 | 0.00 | 86 | 1017.7 |
| 20260506070849 | 58 | 213 | 10.0 | 24.0 | 0.00 | 0.00 | 0.00 | 85 | 1017.7 |
| 20260506062349 | 59 | 214 | 10.0 | 22.0 | 0.00 | 0.00 | 0.00 | 84 | 1017.6 |
| 20260506061449 | 59 | 215 | 10.0 | 21.0 | 0.00 | 0.00 | 0.00 | 84 | 1017.6 |
| 20260506051148 | 59 | 212 | 9.0 | 21.0 | 0.00 | 0.00 | 0.00 | 82 | 1017.9 |
| 20260506050248 | 60 | 210 | 9.0 | 18.0 | 0.00 | 0.00 | 0.00 | 81 | 1017.9 |
| 20260506044448 | 60 | 213 | 10.0 | 24.0 | 0.00 | 0.00 | 0.00 | 81 | 1017.9 |
| 20260506043548 | 60 | 219 | 10.0 | 24.0 | 0.00 | 0.00 | 0.00 | 80 | 1017.9 |
| 20260506042649 | 60 | 218 | 11.0 | 22.0 | 0.00 | 0.00 | 0.00 | 80 | 1018.1 |
| 20260506041749 | 60 | 219 | 11.0 | 25.0 | 0.00 | 0.00 | 0.00 | 80 | 1018.0 |
| 20260506040848 | 60 | 213 | 11.0 | 20.0 | 0.00 | 0.00 | 0.00 | 80 | 1018.0 |
| 20260506035048 | 60 | 205 | 10.0 | 23.0 | 0.00 | 0.00 | 0.00 | 80 | 1018.0 |
| 20260506034148 | 60 | 206 | 10.0 | 21.0 | 0.00 | 0.00 | 0.00 | 79 | 1018.0 |
| 20260506033249 | 60 | 210 | 11.0 | 25.0 | 0.00 | 0.00 | 0.00 | 79 | 1018.0 |
| 20260506032348 | 60 | 209 | 11.0 | 22.0 | 0.00 | 0.00 | 0.00 | 79 | 1018.0 |
| 20260506031448 | 60 | 212 | 10.0 | 22.0 | 0.00 | 0.00 | 0.00 | 79 | 1017.9 |
| 20260506025649 | 61 | 214 | 9.0 | 19.0 | 0.00 | 0.00 | 0.00 | 79 | 1018.0 |
| 20260506024748 | 61 | 213 | 11.0 | 25.0 | 0.00 | 0.00 | 0.00 | 79 | 1018.0 |
| 20260506022948 | 61 | 217 | 11.0 | 26.0 | 0.00 | 0.00 | 0.00 | 78 | 1018.1 |
| 20260506022048 | 61 | 214 | 12.0 | 24.0 | 0.00 | 0.00 | 0.00 | 77 | 1018.0 |
| 20260506021148 | 61 | 219 | 11.0 | 23.0 | 0.00 | 0.00 | 0.00 | 77 | 1018.0 |
| 20260506020248 | 61 | 211 | 11.0 | 23.0 | 0.00 | 0.00 | 0.00 | 76 | 1018.0 |
| 20260506015348 | 62 | 208 | 10.0 | 24.0 | 0.00 | 0.00 | 0.00 | 75 | 1017.9 |
| 20260506014449 | 62 | 211 | 11.0 | 22.0 | 0.00 | 0.00 | 0.00 | 73 | 1018.0 |
| 20260506013548 | 63 | 215 | 13.0 | 29.0 | 0.00 | 0.00 | 0.00 | 71 | 1017.8 |
| 20260506012647 | 63 | 220 | 12.0 | 29.0 | 0.00 | 0.00 | 0.00 | 70 | 1017.8 |
| 20260506010847 | 64 | 216 | 13.0 | 28.0 | 0.00 | 0.00 | 0.00 | 70 | 1017.3 |